User: anonymous   Login
Location: Goheenville
(40.9070°N, 79.3720°W)
Time: 11:22:23
(UTC-04:00)
Language:

NOAA 11 - Orbit

View from above orbital plane
View from above orbital plane
View from above satellite
View from above satellite

Ground track
Ground track

The orbit data is extracted from the following two-line orbital elements,

1 19531U 88089A   16178.21182625 -.00000006  00000-0  18905-4 0  9996
2 19531  98.6012 244.2653 0010814 345.4191  14.6669 14.15189514432408
Epoch (UTC): 26 June 2016 05:05:01
Eccentricity: 0.0010814
inclination: 98.6012°
perigee height: 834 km
apogee height: 849 km
right ascension of ascending node: 244.2653°
argument of perigee: 345.4191°
revolutions per day: 14.15189514
mean anomaly at epoch: 14.6669°
orbit number at epoch: 43240

The dashed part of the orbit path shows where the satellite is in the earth's shadow,  

DLR